| time (UTC) | temp F | wind direction | speed knots | gust knots | rain 1hr in | rain 24hr in | rain mn in | humidity % | barometer mb |
| 20260506111923 | 51 | 1 | 0.0 | 0.0 | 0.00 | 0.00 | 0.00 | 63 | |
| 20260506111419 | 51 | 1 | 0.0 | 0.0 | 0.00 | 0.00 | 0.00 | 62 | |
| 20260506110911 | 52 | 1 | 0.0 | 0.0 | 0.00 | 0.00 | 0.00 | 61 | |
| 20260506110408 | 51 | 1 | 0.0 | 0.0 | 0.00 | 0.00 | 0.00 | 62 | |
| 20260506105900 | 52 | 1 | 0.0 | 0.0 | 0.00 | 0.00 | 0.00 | 61 | |
| 20260506105357 | 53 | 1 | 0.0 | 0.0 | 0.00 | 0.00 | 0.00 | 60 | |
| 20260506104854 | 53 | 1 | 0.0 | 0.0 | 0.00 | 0.00 | 0.00 | 60 | |
| 20260506104350 | 53 | 1 | 0.0 | 1.7 | 0.00 | 0.00 | 0.00 | 60 | |
| 20260506103842 | 53 | 2 | 0.0 | 0.0 | 0.00 | 0.00 | 0.00 | 60 | |
| 20260506103338 | 52 | 2 | 0.0 | 3.5 | 0.00 | 0.00 | 0.00 | 60 | |
| 20260506102835 | 51 | 15 | 2.6 | 4.3 | 0.00 | 0.00 | 0.00 | 61 | |
| 20260506102331 | 53 | 0 | 2.6 | 4.3 | 0.00 | 0.00 | 0.00 | 61 | |
| 20260506101827 | 52 | 8 | 2.6 | 3.5 | 0.00 | 0.00 | 0.00 | 61 | |
| 20260506101324 | 52 | 39 | 1.7 | 5.2 | 0.00 | 0.00 | 0.00 | 62 | |
| 20260506095809 | 52 | 323 | 0.0 | 2.6 | 0.00 | 0.00 | 0.00 | 60 | |
| 20260506095306 | 53 | 313 | 0.9 | 2.6 | 0.00 | 0.00 | 0.00 | 59 | |
| 20260506094254 | 52 | 303 | 0.0 | 1.7 | 0.00 | 0.00 | 0.00 | 59 | |
| 20260506093750 | 53 | 37 | 0.0 | 6.1 | 0.00 | 0.00 | 0.00 | 59 | |
| 20260506092740 | 54 | 4 | 5.2 | 7.8 | 0.00 | 0.00 | 0.00 | 58 | |
| 20260506092236 | 54 | 28 | 0.0 | 0.0 | 0.00 | 0.00 | 0.00 | 56 | |
| 20260506091729 | 55 | 28 | 0.0 | 0.0 | 0.00 | 0.00 | 0.00 | 56 | |
| 20260506090722 | 55 | 28 | 0.0 | 2.6 | 0.00 | 0.00 | 0.00 | 54 | |
| 20260506090218 | 55 | 11 | 1.7 | 1.7 | 0.00 | 0.00 | 0.00 | 53 | |
| 20260506085711 | 56 | 327 | 0.0 | 0.0 | 0.00 | 0.00 | 0.00 | 53 | |
| 20260506085207 | 57 | 323 | 0.0 | 0.0 | 0.00 | 0.00 | 0.00 | 53 | |
| 20260506084659 | 56 | 323 | 0.0 | 2.6 | 0.00 | 0.00 | 0.00 | 52 | |
| 20260506084156 | 56 | 307 | 0.0 | 2.6 | 0.00 | 0.00 | 0.00 | 53 | |
| 20260506083652 | 56 | 5 | 0.0 | 0.0 | 0.00 | 0.00 | 0.00 | 54 | |
| 20260506083146 | 56 | 5 | 0.0 | 0.0 | 0.00 | 0.00 | 0.00 | 53 | |
| 20260506082642 | 56 | 5 | 0.0 | 1.7 | 0.00 | 0.00 | 0.00 | 51 | |
| 20260506082139 | 58 | 8 | 1.7 | 3.5 | 0.00 | 0.00 | 0.00 | 49 | |
| 20260506081635 | 58 | 25 | 0.0 | 1.7 | 0.00 | 0.00 | 0.00 | 50 | |
| 20260506081127 | 58 | 338 | 1.7 | 0.0 | 0.00 | 0.00 | 0.00 | 49 | |
| 20260506080624 | 58 | 29 | 0.0 | 0.0 | 0.00 | 0.00 | 0.00 | 50 | |
| 20260506080120 | 57 | 29 | 0.0 | 0.0 | 0.00 | 0.00 | 0.00 | 51 | |
| 20260506073048 | 58 | 33 | 1.7 | 3.5 | 0.00 | 0.00 | 0.00 | 50 | |
| 20260506072544 | 59 | 330 | 3.5 | 0.0 | 0.00 | 0.00 | 0.00 | 49 | |
| 20260506072040 | 59 | 45 | 0.0 | 4.3 | 0.00 | 0.00 | 0.00 | 48 | |
| 20260506071536 | 59 | 23 | 1.7 | 4.3 | 0.00 | 0.00 | 0.00 | 47 | |
| 20260506071031 | 60 | 23 | 2.6 | 1.7 | 0.00 | 0.00 | 0.00 | 46 | |
| 20260506070525 | 60 | 9 | 0.0 | 0.0 | 0.00 | 0.00 | 0.00 | 46 | |
| 20260506061942 | 61 | 60 | 0.0 | 0.0 | 0.00 | 0.00 | 0.00 | 44 | |
| 20260506061438 | 62 | 60 | 0.0 | 4.3 | 0.00 | 0.00 | 0.00 | 44 | |
| 20260506060933 | 62 | 15 | 3.5 | 2.6 | 0.00 | 0.00 | 0.00 | 44 | |
| 20260506060430 | 63 | 202 | 0.0 | 1.7 | 0.00 | 0.00 | 0.00 | 43 | |
| 20260506051343 | 64 | 323 | 0.0 | 4.3 | 0.00 | 0.00 | 0.00 | 41 | |
| 20260506050839 | 65 | 358 | 3.5 | 4.3 | 0.00 | 0.00 | 0.00 | 40 | |
| 20260506050335 | 66 | 261 | 0.9 | 2.6 | 0.00 | 0.00 | 0.00 | 39 | |
| 20260506044824 | 67 | 2 | 2.6 | 4.3 | 0.00 | 0.00 | 0.00 | 37 | |
| 20260506044319 | 67 | 7 | 3.5 | 4.3 | 0.00 | 0.00 | 0.00 | 38 | |
| 20260506043812 | 67 | 35 | 3.5 | 5.2 | 0.00 | 0.00 | 0.00 | 38 | |
| 20260506042805 | 70 | 101 | 0.9 | 2.6 | 0.00 | 0.00 | 0.00 | 34 | |
| 20260506042305 | 71 | 307 | 0.0 | 5.2 | 0.00 | 0.00 | 0.00 | 32 | |
| 20260506041251 | 71 | 310 | 3.5 | 7.8 | 0.00 | 0.00 | 0.00 | 33 | |
| 20260506040748 | 71 | 300 | 4.3 | 9.6 | 0.00 | 0.00 | 0.00 | 32 | |
| 20260506040244 | 72 | 293 | 4.3 | 7.8 | 0.00 | 0.00 | 0.00 | 31 | |
| 20260506035738 | 71 | 302 | 7.0 | 7.8 | 0.00 | 0.00 | 0.00 | 31 | |
| 20260506035230 | 70 | 303 | 5.2 | 7.8 | 0.00 | 0.00 | 0.00 | 32 | |
| 20260506034727 | 69 | 295 | 2.6 | 6.1 | 0.00 | 0.00 | 0.00 | 34 | |
| 20260506034223 | 69 | 310 | 4.3 | 4.3 | 0.00 | 0.00 | 0.00 | 36 | |
| 20260506033216 | 70 | 286 | 0.0 | 0.0 | 0.00 | 0.00 | 0.00 | 35 | |
| 20260506032205 | 73 | 286 | 0.0 | 2.6 | 0.00 | 0.00 | 0.00 | 32 | |
| 20260506031702 | 74 | 286 | 0.0 | 0.0 | 0.00 | 0.00 | 0.00 | 30 | |
| 20260506031158 | 75 | 262 | 0.0 | 0.0 | 0.00 | 0.00 | 0.00 | 29 | |
| 20260506030655 | 76 | 262 | 0.0 | 0.0 | 0.00 | 0.00 | 0.00 | 28 | |
| 20260506030148 | 78 | 298 | 0.0 | 3.5 | 0.00 | 0.00 | 0.00 | 26 | |
| 20260506025645 | 79 | 298 | 0.0 | 5.2 | 0.00 | 0.00 | 0.00 | 24 | |
| 20260506025141 | 79 | 271 | 2.6 | 5.2 | 0.00 | 0.00 | 0.00 | 23 | |
| 20260506024634 | 80 | 257 | 3.5 | 5.2 | 0.00 | 0.00 | 0.00 | 22 | |
| 20260506024130 | 80 | 260 | 4.3 | 3.5 | 0.00 | 0.00 | 0.00 | 22 | |
| 20260506023627 | 81 | 261 | 2.6 | 3.5 | 0.00 | 0.00 | 0.00 | 21 | |
| 20260506023123 | 82 | 215 | 2.6 | 3.5 | 0.00 | 0.00 | 0.00 | 19 | |
| 20260506022616 | 82 | 199 | 1.7 | 0.0 | 0.00 | 0.00 | 0.00 | 19 | |
| 20260506022112 | 83 | 133 | 0.0 | 0.9 | 0.00 | 0.00 | 0.00 | 19 | |
| 20260506021605 | 83 | 133 | 0.0 | 3.5 | 0.00 | 0.00 | 0.00 | 18 | |
| 20260506021101 | 83 | 153 | 1.7 | 4.3 | 0.00 | 0.00 | 0.00 | 18 | |
| 20260506020557 | 83 | 151 | 1.7 | 5.2 | 0.00 | 0.00 | 0.00 | 18 | |
| 20260506020050 | 83 | 142 | 4.3 | 6.1 | 0.00 | 0.00 | 0.00 | 17 | |
| 20260506015547 | 83 | 118 | 3.5 | 5.2 | 0.00 | 0.00 | 0.00 | 18 | |
| 20260506015043 | 83 | 158 | 5.2 | 4.3 | 0.00 | 0.00 | 0.00 | 18 | |
| 20260506014536 | 83 | 158 | 3.5 | 6.1 | 0.00 | 0.00 | 0.00 | 17 | |
| 20260506014032 | 83 | 129 | 4.3 | 6.1 | 0.00 | 0.00 | 0.00 | 17 | |
| 20260506013528 | 83 | 170 | 4.3 | 5.2 | 0.00 | 0.00 | 0.00 | 18 | |
| 20260506013025 | 83 | 177 | 4.3 | 6.1 | 0.00 | 0.00 | 0.00 | 17 | |
| 20260506012521 | 83 | 199 | 4.3 | 5.2 | 0.00 | 0.00 | 0.00 | 17 | |
| 20260506012015 | 83 | 136 | 4.3 | 5.2 | 0.00 | 0.00 | 0.00 | 17 | |
| 20260506011511 | 84 | 156 | 2.6 | 4.3 | 0.00 | 0.00 | 0.00 | 17 | |
| 20260506011008 | 84 | 165 | 2.6 | 4.3 | 0.00 | 0.00 | 0.00 | 16 | |
| 20260506010501 | 83 | 172 | 0.0 | 5.2 | 0.00 | 0.00 | 0.00 | 18 | |
| 20260506005454 | 83 | 151 | 4.3 | 6.1 | 0.00 | 0.00 | 0.00 | 18 | |
| 20260506004950 | 83 | 139 | 3.5 | 6.1 | 0.00 | 0.00 | 0.00 | 18 | |
| 20260506004444 | 83 | 165 | 6.1 | 7.0 | 0.00 | 0.00 | 0.00 | 18 | |
| 20260506003940 | 83 | 154 | 5.2 | 7.0 | 0.00 | 0.00 | 0.00 | 18 | |
| 20260506003437 | 83 | 137 | 7.0 | 7.8 | 0.00 | 0.00 | 0.00 | 18 | |
| 20260506002933 | 83 | 143 | 6.1 | 7.0 | 0.00 | 0.00 | 0.00 | 17 | |
| 20260506002430 | 85 | 157 | 3.5 | 5.2 | 0.00 | 0.00 | 0.00 | 17 | |
| 20260506001925 | 84 | 194 | 1.7 | 5.2 | 0.00 | 0.00 | 0.00 | 18 | |
| 20260506001422 | 83 | 135 | 1.7 | 5.2 | 0.00 | 0.00 | 0.00 | 17 | |
| 20260506000918 | 83 | 135 | 1.7 | 7.0 | 0.00 | 0.00 | 0.00 | 17 | |
| 20260506000416 | 83 | 143 | 7.0 | 7.8 | 0.00 | 0.00 | 0.00 | 18 | |
| 20260505235911 | 83 | 167 | 7.0 | 7.0 | 0.00 | 0.00 | 0.00 | 18 | |
| 20260505234901 | 84 | 161 | 6.1 | 6.1 | 0.00 | 0.00 | 0.00 | 18 | |
| 20260505234357 | 83 | 220 | 2.6 | 7.0 | 0.00 | 0.00 | 0.00 | 17 | |
| 20260505233854 | 83 | 250 | 0.0 | 7.0 | 0.00 | 0.00 | 0.00 | 19 | |
| 20260505233347 | 83 | 149 | 4.3 | 6.1 | 0.00 | 0.00 | 0.00 | 18 | |
| 20260505232843 | 82 | 182 | 6.1 | 5.2 | 0.00 | 0.00 | 0.00 | 19 | |
| 20260505232340 | 83 | 261 | 2.6 | 7.0 | 0.00 | 0.00 | 0.00 | 19 | |
| 20260505231833 | 81 | 225 | 4.3 | 8.7 | 0.00 | 0.00 | 0.00 | 18 | |
| 20260505230825 | 82 | 168 | 3.5 | 7.0 | 0.00 | 0.00 | 0.00 | 17 | |
| 20260505230322 | 82 | 181 | 4.3 | 7.8 | 0.00 | 0.00 | 0.00 | 18 | |
| 20260505225312 | 81 | 129 | 3.5 | 6.1 | 0.00 | 0.00 | 0.00 | 18 | |
| 20260505224808 | 82 | 286 | 0.9 | 6.1 | 0.00 | 0.00 | 0.00 | 19 | |
| 20260505224305 | 82 | 212 | 4.3 | 6.1 | 0.00 | 0.00 | 0.00 | 20 | |
| 20260505223758 | 81 | 229 | 5.2 | 7.8 | 0.00 | 0.00 | 0.00 | 19 | |
| 20260505223254 | 81 | 156 | 5.2 | 8.7 | 0.00 | 0.00 | 0.00 | 19 | |
| 20260505222751 | 81 | 160 | 6.1 | 6.1 | 0.00 | 0.00 | 0.00 | 19 | |
| 20260505222244 | 82 | 188 | 3.5 | 7.0 | 0.00 | 0.00 | 0.00 | 18 | |
| 20260505221739 | 80 | 133 | 6.1 | 7.8 | 0.00 | 0.00 | 0.00 | 19 | |
| 20260505220730 | 80 | 251 | 4.3 | 7.0 | 0.00 | 0.00 | 0.00 | 20 | |
| 20260505220227 | 81 | 92 | 4.3 | 7.0 | 0.00 | 0.00 | 0.00 | 19 | |
| 20260505215723 | 82 | 187 | 6.1 | 7.0 | 0.00 | 0.00 | 0.00 | 19 | |
| 20260505214716 | 80 | 191 | 3.5 | 8.7 | 0.00 | 0.00 | 0.00 | 19 | |
| 20260505213706 | 80 | 254 | 1.7 | 7.0 | 0.00 | 0.00 | 0.00 | 23 | |
| 20260505213202 | 79 | 158 | 3.5 | 9.6 | 0.00 | 0.00 | 0.00 | 19 | |
| 20260505212152 | 80 | 188 | 5.2 | 7.8 | 0.00 | 0.00 | 0.00 | 20 | |
| 20260505211648 | 80 | 239 | 3.5 | 4.3 | 0.00 | 0.00 | 0.00 | 19 | |
| 20260505211144 | 81 | 157 | 4.3 | 4.3 | 0.00 | 0.00 | 0.00 | 19 | |
| 20260505210638 | 80 | 40 | 3.5 | 8.7 | 0.00 | 0.00 | 0.00 | 19 | |
| 20260505205631 | 79 | 171 | 5.2 | 6.1 | 0.00 | 0.00 | 0.00 | 21 | |
| 20260505205123 | 79 | 158 | 3.5 | 5.2 | 0.00 | 0.00 | 0.00 | 19 | |
| 20260505204619 | 80 | 1 | 0.0 | 6.1 | 0.00 | 0.00 | 0.00 | 19 | |
| 20260505204116 | 78 | 59 | 0.0 | 7.0 | 0.00 | 0.00 | 0.00 | 20 | |
| 20260505203612 | 78 | 150 | 4.3 | 5.2 | 0.00 | 0.00 | 0.00 | 21 | |
| 20260505203106 | 78 | 30 | 1.7 | 5.2 | 0.00 | 0.00 | 0.00 | 20 | |
| 20260505202602 | 79 | 240 | 4.3 | 4.3 | 0.00 | 0.00 | 0.00 | 20 | |
| 20260505202058 | 78 | 222 | 1.7 | 8.7 | 0.00 | 0.00 | 0.00 | 21 | |
| 20260505201551 | 77 | 146 | 2.6 | 7.8 | 0.00 | 0.00 | 0.00 | 20 | |
| 20260505201048 | 78 | 104 | 4.3 | 7.0 | 0.00 | 0.00 | 0.00 | 20 | |
| 20260505200544 | 77 | 144 | 2.6 | 6.1 | 0.00 | 0.00 | 0.00 | 19 | |
| 20260505200037 | 77 | 119 | 0.9 | 7.0 | 0.00 | 0.00 | 0.00 | 20 | |
| 20260505195534 | 77 | 139 | 4.3 | 6.1 | 0.00 | 0.00 | 0.00 | 20 | |
| 20260505194526 | 75 | 28 | 0.9 | 7.0 | 0.00 | 0.00 | 0.00 | 21 | |
| 20260505194023 | 75 | 112 | 2.6 | 7.0 | 0.00 | 0.00 | 0.00 | 21 | |
| 20260505193013 | 74 | 153 | 7.0 | 6.1 | 0.00 | 0.00 | 0.00 | 23 | |
| 20260505192508 | 75 | 151 | 0.0 | 7.0 | 0.00 | 0.00 | 0.00 | 21 | |
| 20260505192002 | 75 | 127 | 3.5 | 5.2 | 0.00 | 0.00 | 0.00 | 22 | |
| 20260505191458 | 74 | 104 | 1.7 | 7.0 | 0.00 | 0.00 | 0.00 | 23 | |
| 20260505190955 | 74 | 90 | 0.9 | 6.1 | 0.00 | 0.00 | 0.00 | 23 | |
| 20260505190451 | 74 | 178 | 0.0 | 5.2 | 0.00 | 0.00 | 0.00 | 26 | |
| 20260505185945 | 72 | 230 | 1.7 | 6.1 | 0.00 | 0.00 | 0.00 | 26 | |
| 20260505185441 | 72 | 149 | 2.6 | 5.2 | 0.00 | 0.00 | 0.00 | 26 | |
| 20260505184430 | 73 | 149 | 3.5 | 5.2 | 0.00 | 0.00 | 0.00 | 26 | |
| 20260505183926 | 73 | 257 | 0.0 | 3.5 | 0.00 | 0.00 | 0.00 | 27 | |
| 20260505183423 | 72 | 174 | 0.0 | 2.6 | 0.00 | 0.00 | 0.00 | 28 | |
| 20260505182919 | 72 | 226 | 0.0 | 4.3 | 0.00 | 0.00 | 0.00 | 26 | |
| 20260505181909 | 70 | 192 | 0.0 | 7.0 | 0.00 | 0.00 | 0.00 | 29 | |
| 20260505181401 | 70 | 206 | 5.2 | 7.0 | 0.00 | 0.00 | 0.00 | 31 | |
| 20260505180857 | 69 | 198 | 3.5 | 6.1 | 0.00 | 0.00 | 0.00 | 31 | |
| 20260505180354 | 69 | 236 | 1.7 | 5.2 | 0.00 | 0.00 | 0.00 | 34 | |
| 20260505174835 | 68 | 59 | 0.0 | 4.3 | 0.00 | 0.00 | 0.00 | 33 | |
| 20260505174331 | 68 | 161 | 0.9 | 3.5 | 0.00 | 0.00 | 0.00 | 34 | |
| 20260505172816 | 67 | 47 | 1.7 | 4.3 | 0.00 | 0.00 | 0.00 | 35 | |
| 20260505172312 | 67 | 136 | 2.6 | 4.3 | 0.00 | 0.00 | 0.00 | 33 | |
| 20260505171808 | 67 | 196 | 0.9 | 1.7 | 0.00 | 0.00 | 0.00 | 35 | |
| 20260505171302 | 66 | 49 | 0.0 | 4.3 | 0.00 | 0.00 | 0.00 | 37 | |
| 20260505170758 | 65 | 126 | 1.7 | 5.2 | 0.00 | 0.00 | 0.00 | 37 | |
| 20260505170254 | 65 | 158 | 2.6 | 3.5 | 0.00 | 0.00 | 0.00 | 36 | |
| 20260505165748 | 66 | 219 | 1.7 | 3.5 | 0.00 | 0.00 | 0.00 | 38 | |
| 20260505165244 | 65 | 102 | 1.7 | 5.2 | 0.00 | 0.00 | 0.00 | 37 | |
| 20260505164741 | 65 | 22 | 0.9 | 5.2 | 0.00 | 0.00 | 0.00 | 40 | |
| 20260505164234 | 63 | 116 | 0.0 | 4.3 | 0.00 | 0.00 | 0.00 | ||
| 20260505163731 | 63 | 158 | 0.0 | 5.2 | 0.00 | 0.00 | 0.00 | 41 | |
| 20260505163227 | 62 | 199 | 1.7 | 7.0 | 0.00 | 0.00 | 0.00 | 41 | |
| 20260505162723 | 61 | 182 | 0.9 | 6.1 | 0.00 | 0.00 | 0.00 | 44 | |
| 20260505161713 | 60 | 226 | 4.3 | 5.2 | 0.00 | 0.00 | 0.00 | 45 | |
| 20260505160706 | 60 | 241 | 4.3 | 7.0 | 0.00 | 0.00 | 0.00 | 45 | |
| 20260505152625 | 57 | 219 | 3.5 | 4.3 | 0.00 | 0.00 | 0.00 | 51 | |
| 20260505152118 | 57 | 234 | 2.6 | 4.3 | 0.00 | 0.00 | 0.00 | 52 | |
| 20260505151615 | 56 | 244 | 3.5 | 4.3 | 0.00 | 0.00 | 0.00 | 52 | |
| 20260505150608 | 57 | 250 | 3.5 | 0.9 | 0.00 | 0.00 | 0.00 | 50 | |
| 20260505140511 | 53 | 45 | 0.0 | 0.0 | 0.00 | 0.00 | 0.00 | 57 | |
| 20260505124357 | 50 | 18 | 0.0 | 2.6 | 0.00 | 0.00 | 0.00 | 58 | |
| 20260505122339 | 49 | 25 | 1.7 | 0.0 | 0.00 | 0.00 | 0.00 | 60 | |
| 20260505121832 | 50 | 312 | 0.0 | 0.0 | 0.00 | 0.00 | 0.00 | 59 | |
| 20260505121328 | 50 | 312 | 0.0 | 0.0 | 0.00 | 0.00 | 0.00 | 58 | |
| 20260505120825 | 51 | 312 | 0.0 | 0.0 | 0.00 | 0.00 | 0.00 | 57 | |
| 20260505120321 | 51 | 312 | 0.0 | 5.2 | 0.00 | 0.00 | 0.00 | 56 | |
| 20260505115311 | 51 | 19 | 0.9 | 3.5 | 0.00 | 0.00 | 0.00 | 56 | |
| 20260505114807 | 52 | 2 | 2.6 | 3.5 | 0.00 | 0.00 | 0.00 | 55 | |
| 20260505114304 | 52 | 25 | 1.7 | 1.7 | 0.00 | 0.00 | 0.00 | 54 | |
| 20260505113758 | 52 | 15 | 1.7 | 5.2 | 0.00 | 0.00 | 0.00 | 54 | |
| 20260505113254 | 52 | 343 | 0.0 | 2.6 | 0.00 | 0.00 | 0.00 | 54 |